TimeCST,TemperatureF,Dew PointF,Humidity,Sea Level PressureIn,VisibilityMPH,Wind Direction,Wind SpeedMPH,Gust SpeedMPH,PrecipitationIn,Events,Conditions,WindDirDegrees,DateUTC
12:53 AM,16.0,6.1,65,30.03,10.0,South,9.2,-,N/A,,Clear,170,2013-01-07 06:53:00
1:53 AM,17.1,9.0,71,30.02,10.0,South,6.9,-,N/A,,Clear,180,2013-01-07 07:53:00
2:53 AM,16.0,9.0,74,29.98,10.0,South,6.9,-,N/A,,Clear,170,2013-01-07 08:53:00
3:53 AM,21.9,14.0,72,29.91,10.0,South,12.7,-,N/A,,Clear,180,2013-01-07 09:53:00
4:53 AM,25.0,15.1,66,29.90,10.0,SSW,12.7,24.2,N/A,,Clear,200,2013-01-07 10:53:00
5:53 AM,24.1,15.1,69,29.90,10.0,SSW,10.4,19.6,N/A,,Clear,200,2013-01-07 11:53:00
6:53 AM,23.0,15.1,72,29.91,10.0,SSW,8.1,-,N/A,,Clear,210,2013-01-07 12:53:00
7:53 AM,23.0,16.0,74,29.90,10.0,SSW,6.9,-,N/A,,Clear,200,2013-01-07 13:53:00
8:53 AM,25.0,18.0,75,29.87,10.0,Variable,5.8,-,N/A,,Clear,0,2013-01-07 14:53:00
9:53 AM,28.0,19.0,69,29.90,10.0,SW,10.4,17.3,N/A,,Clear,220,2013-01-07 15:53:00
10:53 AM,30.9,19.9,64,29.89,10.0,SSW,9.2,18.4,N/A,,Partly Cloudy,210,2013-01-07 16:53:00
11:53 AM,32.0,21.0,64,29.86,10.0,SW,6.9,19.6,N/A,,Partly Cloudy,230,2013-01-07 17:53:00
1:53 PM,35.1,21.9,59,29.86,10.0,SW,9.2,18.4,N/A,,Clear,220,2013-01-07 19:53:00
2:53 PM,36.0,21.9,57,29.87,10.0,Variable,6.9,-,N/A,,Clear,0,2013-01-07 20:53:00
3:53 PM,34.0,21.9,61,29.88,10.0,SSW,6.9,-,N/A,,Clear,200,2013-01-07 21:53:00
4:53 PM,32.0,21.0,64,29.89,10.0,SSW,5.8,-,N/A,,Clear,210,2013-01-07 22:53:00
5:53 PM,30.9,21.0,67,29.91,10.0,SSW,5.8,-,N/A,,Clear,210,2013-01-07 23:53:00
6:53 PM,30.9,21.0,67,29.91,10.0,SSW,4.6,-,N/A,,Clear,210,2013-01-08 00:53:00
7:53 PM,28.9,21.0,72,29.93,10.0,Calm,Calm,-,N/A,,Clear,0,2013-01-08 01:53:00
8:53 PM,28.0,21.0,75,29.94,10.0,SSW,4.6,-,N/A,,Clear,200,2013-01-08 02:53:00
9:53 PM,25.0,19.0,78,29.95,10.0,Calm,Calm,-,N/A,,Clear,0,2013-01-08 03:53:00
10:53 PM,18.0,15.1,88,29.97,8.0,SSW,3.5,-,N/A,,Clear,200,2013-01-08 04:53:00
11:53 PM,16.0,12.0,84,29.99,3.0,Calm,Calm,-,N/A,,Clear,0,2013-01-08 05:53:00